This is the latest recevied weather packets stored in our database for station/object N8AMF. If no packets are shown the sender has not sent any weather packets the latest 10 day(s).
| Time | Temp. | Humidity | Pressure | Rain* | Wind** | Luminosity | Snow |
|---|---|---|---|---|---|---|---|
| 1777682742 | 5.56° C | 88% | 1014.6 hPa | 0 mm | - | 0 W/m² | - |
| 1777682439 | 5.56° C | 88% | 1014.6 hPa | 0 mm | - | 0 W/m² | - |
| 1777682137 | 5.56° C | 87% | 1014.5 hPa | 0 mm | - | 1 W/m² | - |
| 1777681833 | 5.56° C | 86% | 1014.6 hPa | 0 mm | - | 2 W/m² | - |
| 1777681530 | 6.11° C | 85% | 1014.5 hPa | 0 mm | - | 3 W/m² | - |
| 1777681227 | 6.11° C | 84% | 1014.4 hPa | 0 mm | - | 6 W/m² | - |
| 1777680925 | 6.67° C | 84% | 1014.4 hPa | 0 mm | - | 9 W/m² | - |
| 1777680622 | 6.67° C | 84% | 1014.5 hPa | 0 mm | - | 12 W/m² | - |
| 1777680320 | 6.67° C | 84% | 1014.1 hPa | 0 mm | - | 15 W/m² | - |
| 1777680017 | 6.67° C | 83% | 1014.3 hPa | 0 mm | - | 17 W/m² | - |
| 1777679713 | 6.67° C | 83% | 1014.1 hPa | 0 mm | - | 21 W/m² | - |
| 1777679408 | 6.67° C | 82% | 1014.1 hPa | 0 mm | - | 26 W/m² | - |
| 1777679104 | 6.67° C | 82% | 1014 hPa | 0 mm | - | 33 W/m² | - |
| 1777678803 | 6.67° C | 81% | 1014.1 hPa | 0 mm | - | 34 W/m² | - |
| 1777678500 | 6.67° C | 80% | 1013.9 hPa | 0 mm | - | 36 W/m² | - |
| 1777678196 | 6.67° C | 79% | 1013.9 hPa | 0 mm | - | 45 W/m² | - |
| 1777677893 | 6.67° C | 78% | 1014.1 hPa | 0 mm | - | 54 W/m² | - |
| 1777677590 | 6.67° C | 78% | 1013.9 hPa | 0 mm | - | 57 W/m² | - |
| 1777677289 | 7.22° C | 77% | 1013.9 hPa | 0 mm | - | 64 W/m² | - |
| 1777676986 | 7.22° C | 76% | 1013.9 hPa | 0 mm | - | 66 W/m² | - |
| 1777676685 | 7.22° C | 75% | 1014 hPa | 0 mm | - | 58 W/m² | - |
| 1777676382 | 7.22° C | 75% | 1013.9 hPa | 0 mm | - | 66 W/m² | - |
| 1777676080 | 7.22° C | 74% | 1014 hPa | 0 mm | - | 75 W/m² | - |
| 1777675775 | 7.78° C | 76% | 1014 hPa | 0 mm | - | 91 W/m² | - |
| 1777675473 | 7.22° C | 75% | 1013.9 hPa | 0 mm | - | 122 W/m² | - |
* Rain latest hour (hover to see other rain measurements)
** Current wind speed in m/s (hover to see current wind gust speed)